GPS BIIF-11

Last updated on Sun Apr 12 2026 00:02:39 GMT+0000 (Coordinated Universal Time)

1 41019U 15062A 26100.96934917 -.00000063 00000+0 00000+0 0 9994 2 41019 56.9173 33.4012 0111228 231.5677 127.4321 2.00567103 76486
UTC large
Height (km)
Speed (km/s)
/
Latitude / Longitude
Inclination (degrees)
Orbital Period (minutes)
Azimuth
Elevation
Range (km)
Doppler Factor

Next 0 passes for location: London (51.5072 / 0.1276)

Sorry there are no passes over London.